User: anonymous   Login
Location: Columbia
(38.9520°N, 92.3340°W)
Time: 17:52:39
(UTC-05:00)
Language:

FENGYUN 3A - Orbit

View from above orbital plane
View from above orbital plane
View from above satellite
View from above satellite

Ground track
Ground track

The orbit data is extracted from the following two-line orbital elements,

1 32958U 08026A   14303.25527121  .00000192  00000-0  11128-3 0  4969
2 32958 098.5386 357.4288 0009297 181.3704 178.7452 14.19484876333001
Epoch (UTC): 30 October 2014 06:07:35
Eccentricity: 0.0009297
inclination: 98.5386°
perigee height: 820 km
apogee height: 834 km
right ascension of ascending node: 357.4288°
argument of perigee: 181.3704°
revolutions per day: 14.19484876
mean anomaly at epoch: 178.7452°
orbit number at epoch: 33300

The dashed part of the orbit path shows where the satellite is in the earth's shadow,  

DLR